Location: Newark
(31.0436°N, 112.2008°E)
Time: 00:33:55
(UTC+00:00)

N. Korean satellite - Pass Details

Date: 04 February 2020
Orbit: 456 x 505 km, 97.2° (Epoch: 24 February)

Event Time Altitude Azimuth Distance (km) Brightness Sun altitude
Rises 21:54:38 0° 18° (NNE) 2,583 10.4 -18.9°
Reaches altitude 10° 21:56:45 10° 24° (NNE) 1,703 9.5 -18.4°
Maximum altitude 22:00:19 48° 99° (E) 657 7.6 -17.7°
Drops below altitude 10° 22:03:53 10° 175° (S) 1,706 9.5 -16.9°
Sets 22:06:01 0° 181° (S) 2,589 10.4 -16.5°
